国际通讯卫星 32E星 (INTELSAT 32E (IS-32E))

导读

INTELSAT 32E由国际通信卫星组织(ITSO)于2017年2月14日发射,属于Intelsat Epic NG系列高通量通信卫星。该系列卫星是国际通信卫星公司新一代通信网络的核心组成,具备更大通信容量与先进转发器技术,可为全球政府、非政府组织及商业客户提供稳定、安全的卫星通信服务,支撑跨洋跨洲的互联互通,推动全球数字化连接与合作。

Basic Information
目录编号:
41945
目录名称:
INTELSAT 32E
国际标识:
2017-007B
轨道中心:
EARTH
卫星名称:
国际通讯卫星 32E星
卫星全名:
国际通讯卫星 32E星 (INTELSAT 32E (IS-32E))
卫星状态:
在轨 (已飞行3451 天)
发射日期:
2017-02-14 UTC
国别 :
(ITSO)
星等 :
--
Orbit Information
数据来源 国际轨道数据 AOE轨道数据
星历时间 2026-07-28T05:08:27+0800
17小时前
查看轨道信息
2026-07-27T08:00:00+0800
1天前
查看轨道信息
半长轴 42165.205km 42164.588km
偏心率 0.0000572 0.0000582
轨道倾角 0.017° 0.024°
近地点辐角 342.651° 328.582°
升交点赤经 64.675° 62.491°
平近点角 172.177° 230.442°
近地点 35784.656km 35783.997km
远地点 35789.48km 35788.905km
周期 1436.121分钟 1436.090分钟
每日圈数 1.002701 1.002723
Detailed Information
卫星平台:
SSL 1300
平衡模式:
三轴稳定
覆盖范围:
全球
运营商:
国际卫星通信公司
运营商所在国:
美国
制造商(研发单位):
波音公司
制造商所在国:
美国
使用方式:
暂无
Satellite Introduction
从1965年4月至1984年3月,国际通信卫星组织发射了5代、6种不同性能的卫星共计35颗,除6颗卫星因运载火箭和远地点发动机故障而发射失败外,其余29颗卫星均被送到了预定的静止轨道位置。1984年8月前后,国际通信卫星组织利用部署在大西洋、太平洋、印度洋上空的15颗国际通信卫星,为遍布世界各地170多个国家或地区提供电话、电传、电报、电视和数据传输等电信业务;该卫星仍在工作。
2D Orbit Map
3D Orbit Map
Orbit Altitude Analysis Chart
Orbit Inclination Analysis Chart
Orbit Comprehensive Analysis Chart
View Comprehensive Chart